H1 CPF 1 NER 2022 1 18 9 5181 glonass107 H2 0706501 9107 32393 2022 1 18 0 0 0 2022 1 21 23 45 0 900 1 1 0 0 0 H9 10 0 59597 0.00000 0 3526108.499 12383799.362 -22038419.119 10 0 59597 900.00000 0 1961265.356 14516062.616 -20901072.534 10 0 59597 1800.00000 0 645095.057 16618331.528 -19358510.699 10 0 59597 2700.00000 0 -410751.688 18625312.052 -17440553.270 10 0 59597 3600.00000 0 -1207084.898 20472406.564 -15184302.982 10 0 59597 4500.00000 0 -1756902.838 22098311.355 -12633437.842 10 0 59597 5400.00000 0 -2084602.717 23447497.829 -9837374.926 10 0 59597 6300.00000 0 -2224707.845 24472473.980 -6850320.863 10 0 59597 7200.00000 0 -2220164.817 25135731.250 -3730226.631 10 0 59597 8100.00000 0 -2120282.568 25411294.636 -537666.348 10 0 59597 9000.00000 0 -1978400.502 25285810.163 2665338.453 10 0 59597 9900.00000 0 -1849384.619 24759122.975 5816525.973 10 0 59597 10800.00000 0 -1787058.224 23844320.702 8854608.937 10 0 59597 11700.00000 0 -1841676.873 22567239.200 11720472.743 10 0 59597 12600.00000 0 -2057555.573 20965450.582 14358332.823 10 0 59597 13500.00000 0 -2470949.989 19086775.364 16716827.935 10 0 59597 14400.00000 0 -3108282.790 16987380.771 18750027.333 10 0 59597 15300.00000 0 -3984791.555 14729544.821 20418331.544 10 0 59597 16200.00000 0 -5103656.873 12379179.875 21689248.760 10 0 59597 17100.00000 0 -6455648.832 10003219.414 22538031.420 10 0 59597 18000.00000 0 -8019308.051 7666977.573 22948160.423 10 0 59597 18900.00000 0 -9761654.775 5431591.829 22911667.556 10 0 59597 19800.00000 0 -11639397.163 3351655.571 22429289.911 10 0 59597 20700.00000 0 -13600588.702 1473139.217 21510453.429 10 0 59597 21600.00000 0 -15586665.727 -168313.943 20173086.050 10 0 59597 22500.00000 0 -17534779.897 -1548646.822 18443264.257 10 0 59597 23400.00000 0 -19380327.928 -2656151.043 16354700.140 10 0 59597 24300.00000 0 -21059572.528 -3491702.431 13948079.158 10 0 59597 25200.00000 0 -22512244.585 -4068461.354 11270261.801 10 0 59597 26100.00000 0 -23684017.322 -4411052.302 8373365.086 10 0 59597 27000.00000 0 -24528748.613 -4554259.166 5313742.239 10 0 59597 27900.00000 0 -25010397.437 -4541293.040 2150880.898 10 0 59597 28800.00000 0 -25104534.194 -4421707.370 -1053758.041 10 0 59597 29700.00000 0 -24799381.932 -4249049.958 -4237937.845 10 0 59597 30600.00000 0 -24096345.266 -4078352.310 -7339855.881 10 0 59597 31500.00000 0 -23010005.501 -3963563.279 -10299342.166 10 0 59597 32400.00000 0 -21567582.815 -3955036.051 -13059023.183 10 0 59597 33300.00000 0 -19807888.649 -4097174.876 -15565428.603 10 0 59597 34200.00000 0 -17779812.666 -4426340.854 -17770019.810 10 0 59597 35100.00000 0 -15540407.668 -4969104.959 -19630121.107 10 0 59597 36000.00000 0 -13152652.320 -5740921.697 -21109736.515 10 0 59597 36900.00000 0 -10682984.483 -6745279.083 -22180237.377 10 0 59597 37800.00000 0 -8198707.005 -7973360.789 -22820908.586 10 0 59597 38700.00000 0 -5765372.703 -9404235.083 -23019343.808 10 0 59597 39600.00000 0 -3444255.887 -11005563.396 -22771682.793 10 0 59597 40500.00000 0 -1290013.965 -12734800.003 -22082686.578 10 0 59597 41400.00000 0 651365.281 -14540834.076 -20965649.133 10 0 59597 42300.00000 0 2344246.726 -16366007.015 -19442146.834 10 0 59597 43200.00000 0 3764592.524 -18148422.383 -17541629.841 10 0 59597 44100.00000 0 4900717.424 -19824453.426 -15300862.327 10 0 59597 45000.00000 0 5753523.937 -21331344.508 -12763221.227 10 0 59597 45900.00000 0 6336208.047 -22609798.518 -9977865.931 10 0 59597 46800.00000 0 6673448.057 -23606442.306 -6998793.876 10 0 59597 47700.00000 0 6800110.777 -24276066.705 -3883799.524 10 0 59597 48600.00000 0 6759529.655 -24583546.671 -693356.347 10 0 59597 49500.00000 0 6601427.621 -24505360.016 2510556.777 10 0 59597 50400.00000 0 6379572.662 -24030639.750 5665661.764 10 0 59597 51300.00000 0 6149265.766 -23161714.491 8710596.301 10 0 59597 52200.00000 0 5964768.246 -21914112.878 11586113.390 10 0 59597 53100.00000 0 5876778.257 -20316030.623 14236241.225 10 0 59597 54000.00000 0 5930064.452 -18407281.491 16609380.126 10 0 59597 54900.00000 0 6161358.147 -16237775.465 18659314.371 10 0 59597 55800.00000 0 6597594.413 -13865587.360 20346118.569 10 0 59597 56700.00000 0 7254577.745 -11354696.483 21636940.454 10 0 59597 57600.00000 0 8136129.848 -8772491.735 22506644.558 10 0 59597 58500.00000 0 9233756.609 -6187146.458 22938304.053 10 0 59597 59400.00000 0 10526849.251 -3664972.615 22923531.187 10 0 59597 60300.00000 0 11983412.013 -1267864.590 22462639.935 10 0 59597 61200.00000 0 13561286.324 949060.916 21564637.831 10 0 59597 62100.00000 0 15209820.432 2939530.940 20247047.305 10 0 59597 63000.00000 0 16871914.575 4667802.821 18535560.156 10 0 59597 63900.00000 0 18486355.794 6109901.776 16463532.107 10 0 59597 64800.00000 0 19990344.239 7254359.165 14071327.526 10 0 59597 65700.00000 0 21322104.664 8102422.125 11405527.320 10 0 59597 66600.00000 0 22423473.111 8667727.573 8518015.856 10 0 59597 67500.00000 0 23242349.890 8975456.230 5464965.139 10 0 59597 68400.00000 0 23734915.571 9061004.262 2305736.494 10 0 59597 69300.00000 0 23867516.808 8968230.328 -898278.190 10 0 59597 70200.00000 0 23618142.839 8747353.763 -4084852.616 10 0 59597 71100.00000 0 22977430.867 8452594.020 -7192135.907 10 0 59597 72000.00000 0 21949158.473 8139652.204 -10159852.196 10 0 59597 72900.00000 0 20550202.835 7863141.805 -12930466.626 10 0 59597 73800.00000 0 18809968.830 7674077.522 -15450295.322 10 0 59597 74700.00000 0 16769310.307 7617528.179 -17670538.180 10 0 59597 75600.00000 0 14478989.683 7730532.524 -19548215.240 10 0 59597 76500.00000 0 11997739.950 8040365.379 -21046989.449 10 0 59597 77400.00000 0 9390009.411 8563226.735 -22137860.884 10 0 59597 78300.00000 0 6723482.131 9303408.669 -22799720.128 10 0 59597 79200.00000 0 4066476.004 10252975.086 -23019751.034 10 0 59597 80100.00000 0 1485325.170 11391968.015 -22793675.824 10 0 59597 81000.00000 0 -958146.108 12689132.517 -22125838.202 10 0 59597 81900.00000 0 -3208954.899 14103130.886 -21029122.923 10 0 59597 82800.00000 0 -5221000.983 15584196.533 -19524713.029 10 0 59597 83700.00000 0 -6958734.728 17076159.785 -17641688.751 10 0 59597 84600.00000 0 -8398383.215 18518762.194 -15416474.842 10 0 59597 85500.00000 0 -9528684.248 19850163.652 -12892145.929 10 0 59598 0.00000 0 -10351098.231 21009538.104 -10117602.381 10 0 59598 900.00000 0 -10879489.757 21939650.139 -7146630.020 10 0 59598 1800.00000 0 -11139291.413 22589302.846 -4036864.854 10 0 59598 2700.00000 0 -11166186.564 22915555.771 -848677.291 10 0 59598 3600.00000 0 -11004365.548 22885617.307 2355999.051 10 0 59598 4500.00000 0 -10704429.539 22478331.376 5514872.546 10 0 59598 5400.00000 0 -10321030.930 21685194.337 8566508.689 10 0 59598 6300.00000 0 -9910350.542 20510857.780 11451530.971 10 0 59598 7200.00000 0 -9527519.127 18973094.572 14113783.252 10 0 59598 8100.00000 0 -9224093.186 17102228.200 16501430.272 10 0 59598 9000.00000 0 -9045692.904 14940048.143 18567974.099 10 0 59598 9900.00000 0 -9029903.183 12538255.897 20273166.044 10 0 59598 10800.00000 0 -9204527.542 9956506.041 21583795.801 10 0 59598 11700.00000 0 -9586269.657 7260123.807 22474342.165 10 0 59598 12600.00000 0 -10179899.061 4517594.352 22927472.434 10 0 59598 13500.00000 0 -10977936.924 1797928.297 22934380.785 10 0 59598 14400.00000 0 -11960875.769 -831986.739 22494959.110 10 0 59598 15300.00000 0 -13097924.231 -3309938.353 21617797.075 10 0 59598 16200.00000 0 -14348245.768 -5580739.342 20320011.612 10 0 59598 17100.00000 0 -15662639.253 -7598278.087 18626909.288 10 0 59598 18000.00000 0 -16985590.614 -9327184.563 16571488.376 10 0 59598 18900.00000 0 -18257608.985 -10744043.569 14193790.533 10 0 59598 19800.00000 0 -19417748.749 -11838105.894 11540114.996 10 0 59598 20700.00000 0 -20406210.898 -12611469.223 8662110.990 10 0 59598 21600.00000 0 -21166913.859 -13078723.093 5615766.475 10 0 59598 22500.00000 0 -21649925.188 -13266074.771 2460313.393 10 0 59598 23400.00000 0 -21813651.494 -13209994.722 -742928.633 10 0 59598 24300.00000 0 -21626694.308 -12955440.617 -3931747.114 10 0 59598 25200.00000 0 -21069293.774 -12553736.352 -7044246.364 10 0 59598 26100.00000 0 -20134299.612 -12060196.876 -10020048.076 10 0 59598 27000.00000 0 -18827628.745 -11531600.012 -12801459.437 10 0 59598 27900.00000 0 -17168190.566 -11023612.485 -15334586.269 10 0 59598 28800.00000 0 -15187283.145 -10588278.879 -17570369.998 10 0 59598 29700.00000 0 -12927485.570 -10271679.164 -19465529.078 10 0 59598 30600.00000 0 -10441092.374 -10111853.028 -20983387.614 10 0 59598 31500.00000 0 -7788154.828 -10137077.774 -22094576.114 10 0 59598 32400.00000 0 -5034209.690 -10364571.608 -22777591.950 10 0 59598 33300.00000 0 -2247788.634 -10799676.381 -23019209.652 10 0 59598 34200.00000 0 502189.572 -11435553.905 -22814733.803 10 0 59598 35100.00000 0 3149037.555 -12253408.774 -22168090.139 10 0 59598 36000.00000 0 5630821.511 -13223228.871 -21091753.085 10 0 59598 36900.00000 0 7892683.918 -14305013.395 -19606510.842 10 0 59598 37800.00000 0 9888871.795 -15450438.003 -17741071.870 10 0 59598 38700.00000 0 11584387.425 -16604888.501 -15531519.383 10 0 59598 39600.00000 0 12956193.653 -17709778.898 -13020623.317 10 0 59598 40500.00000 0 13993924.171 -18705057.511 -10257021.911 10 0 59598 41400.00000 0 14700069.525 -19531796.506 -7294287.602 10 0 59598 42300.00000 0 15089631.168 -20134756.216 -4189894.539 10 0 59598 43200.00000 0 15189258.235 -20464816.137 -1004107.076 10 0 59598 44100.00000 0 15035903.374 -20481169.539 2201189.444 10 0 59598 45000.00000 0 14675054.351 -20153188.176 5363692.796 10 0 59598 45900.00000 0 14158616.305 -19461877.109 8421899.089 10 0 59598 46800.00000 0 13542534.446 -18400856.739 11316304.896 10 0 59598 47700.00000 0 12884258.260 -16976829.025 13990572.064 10 0 59598 48600.00000 0 12240155.124 -15209506.609 16392631.754 10 0 59598 49500.00000 0 11662983.524 -13131006.285 18475705.483 10 0 59598 50400.00000 0 11199533.546 -10784731.031 20199222.555 10 0 59598 51300.00000 0 10888535.188 -8223786.384 21529615.550 10 0 59598 52200.00000 0 10758923.625 -5508996.622 22440978.079 10 0 59598 53100.00000 0 10828535.281 -2706603.191 22915571.757 10 0 59598 54000.00000 0 11103290.221 114258.958 22944172.558 10 0 59598 54900.00000 0 11576895.665 2884202.180 22526249.845 10 0 59598 55800.00000 0 12231083.256 5536234.167 21669974.708 10 0 59598 56700.00000 0 13036370.074 8008303.227 20392057.631 10 0 59598 57600.00000 0 13953311.163 10245635.191 18717418.801 10 0 59598 58500.00000 0 14934190.474 12202765.062 16678697.700 10 0 59598 59400.00000 0 15925078.565 13845179.573 14315611.779 10 0 59598 60300.00000 0 16868169.824 15150503.172 11674176.930 10 0 59598 61200.00000 0 17704300.126 16109179.186 8805805.396 10 0 59598 62100.00000 0 18375538.246 16724619.297 5766299.080 10 0 59598 63000.00000 0 18827741.197 17012816.867 2614758.366 10 0 59598 63900.00000 0 19012965.339 17001442.191 -587571.680 10 0 59598 64800.00000 0 18891631.283 16728459.644 -3778494.751 10 0 59598 65700.00000 0 18434351.163 16240326.627 -6896072.741 10 0 59598 66600.00000 0 17623341.275 15589851.664 -9879827.240 10 0 59598 67500.00000 0 16453360.662 14833803.047 -12671909.697 10 0 59598 68400.00000 0 14932136.229 14030369.555 -15218217.699 10 0 59598 69300.00000 0 13080256.565 13236580.499 -17469436.074 10 0 59598 70200.00000 0 10930538.753 12505793.681 -19381983.385 10 0 59598 71100.00000 0 8526894.228 11885356.458 -20918846.403 10 0 59598 72000.00000 0 5922740.467 11414537.643 -22050287.407 10 0 59598 72900.00000 0 3179023.680 11122816.256 -22754411.733 10 0 59598 73800.00000 0 361933.530 11028598.248 -23017585.551 10 0 59598 74700.00000 0 -2459596.567 11138414.394 -22834696.547 10 0 59598 75600.00000 0 -5216501.497 11446632.667 -22209252.910 10 0 59598 76500.00000 0 -7842202.160 11935697.152 -21153318.822 10 0 59598 77400.00000 0 -10275121.838 12576883.829 -19687287.340 10 0 59598 78300.00000 0 -12460998.289 13331542.179 -17839494.454 10 0 59598 79200.00000 0 -14354896.767 14152771.397 -15645680.766 10 0 59598 80100.00000 0 -15922841.147 14987461.772 -13148310.133 10 0 59598 81000.00000 0 -17142995.856 15778616.345 -10395757.265 10 0 59598 81900.00000 0 -18006349.660 16467855.880 -7441378.854 10 0 59598 82800.00000 0 -18516872.772 16998002.043 -4342485.416 10 0 59598 83700.00000 0 -18691140.743 17315629.877 -1159233.117 10 0 59598 84600.00000 0 -18557440.818 17373481.471 2046543.210 10 0 59598 85500.00000 0 -18154398.314 17132638.048 5212533.066 10 0 59599 0.00000 0 -17529181.026 16564357.611 8277165.318 10 0 59599 900.00000 0 -16735357.212 15651498.636 11180812.668 10 0 59599 1800.00000 0 -15830498.862 14389468.918 13866957.199 10 0 59599 2700.00000 0 -14873630.843 12786656.739 16283299.048 10 0 59599 3600.00000 0 -13922635.130 10864325.157 18382781.685 10 0 59599 4500.00000 0 -13031720.097 8655972.065 20124514.807 10 0 59599 5400.00000 0 -12249062.480 6206181.525 21474576.115 10 0 59599 6300.00000 0 -11614722.059 3569013.327 22406676.033 10 0 59599 7200.00000 0 -11158917.526 805997.381 22902672.214 10 0 59599 8100.00000 0 -10900736.487 -2016183.951 22952923.807 10 0 59599 9000.00000 0 -10847334.054 -4828229.364 22556478.648 10 0 59599 9900.00000 0 -10993653.705 -7560862.542 21721089.831 10 0 59599 10800.00000 0 -11322681.858 -10147476.674 20463061.538 10 0 59599 11700.00000 0 -11806224.987 -12526669.722 18806927.263 10 0 59599 12600.00000 0 -12406175.921 -14644565.059 16784966.936 10 0 59599 13500.00000 0 -13076215.258 -16456821.412 14436572.588 10 0 59599 14400.00000 0 -13763875.351 -17930248.994 11807475.155 10 0 59599 15300.00000 0 -14412879.016 -19043965.330 8948847.912 10 0 59599 16200.00000 0 -14965653.440 -19790043.750 5916304.412 10 0 59599 17100.00000 0 -15365912.480 -20173628.947 2768810.923 10 0 59599 18000.00000 0 -15561197.658 -20212516.371 -432464.842 10 0 59599 18900.00000 0 -15505270.115 -19936214.923 -3625345.742 10 0 59599 19800.00000 0 -15160252.198 -19384534.041 -6747854.396 10 0 59599 20700.00000 0 -14498428.173 -18605756.129 -9739415.547 10 0 59599 21600.00000 0 -13503628.060 -17654472.540 -12542028.229 10 0 59599 22500.00000 0 -12172136.284 -16589175.035 -15101385.098 10 0 59599 23400.00000 0 -10513086.882 -15469704.549 -17367917.567 10 0 59599 24300.00000 0 -8548328.487 -14354664.592 -19297747.257 10 0 59599 25200.00000 0 -6311764.298 -13298907.578 -20853526.198 10 0 59599 26100.00000 0 -3848194.017 -12351198.950 -22005150.578 10 0 59599 27000.00000 0 -1211705.098 -11552156.193 -22730335.290 10 0 59599 27900.00000 0 1536321.004 -10932548.092 -23015039.169 10 0 59599 28800.00000 0 4329506.055 -10512024.595 -22853733.445 10 0 59599 29700.00000 0 7098982.055 -10298329.673 -22249508.676 10 0 59599 30600.00000 0 9776005.726 -10287029.653 -21214018.207 10 0 59599 31500.00000 0 12294573.570 -10461768.243 -19767258.924 10 0 59599 32400.00000 0 14593930.573 -10795037.694 -17937192.911 10 0 59599 33300.00000 0 16620869.613 -11249434.202 -15759216.342 10 0 59599 34200.00000 0 18331726.879 -11779345.441 -13275484.809 10 0 59599 35100.00000 0 19693990.902 -12332999.965 -10534106.942 10 0 59599 36000.00000 0 20687458.372 -12854792.843 -7588220.808 10 0 59599 36900.00000 0 21304888.462 -13287789.893 -4494970.129 10 0 59599 37800.00000 0 21552128.144 -13576305.018 -1314399.523 10 0 59599 38700.00000 0 21447703.002 -13668441.463 1891710.146 10 0 59599 39600.00000 0 21021890.451 -13518488.975 5061043.549 10 0 59599 40500.00000 0 20315314.233 -13089074.460 8131966.138 10 0 59599 41400.00000 0 19377119.350 -12352973.785 11044728.681 10 0 59599 42300.00000 0 18262804.514 -11294506.586 13742636.770 10 0 59599 43200.00000 0 17031803.883 -9910453.354 16173161.820 10 0 59599 44100.00000 0 15744920.465 -8210454.298 18288971.136 10 0 59599 45000.00000 0 14461720.049 -6216871.460 20048856.255 10 0 59599 45900.00000 0 13237996.015 -3964118.236 21418541.015 10 0 59599 46800.00000 0 12123412.350 -1497483.028 22371353.264 10 0 59599 47700.00000 0 11159424.500 1128504.785 22888746.894 10 0 59599 48600.00000 0 10377565.759 3852099.104 22960664.060 10 0 59599 49500.00000 0 9798171.227 6606667.733 22585730.543 10 0 59599 50400.00000 0 9429592.771 9323232.479 21771280.591 10 0 59599 51300.00000 0 9267937.512 11933113.155 20533210.930 10 0 59599 52200.00000 0 9297340.087 14370565.543 18895666.941 10 0 59599 53100.00000 0 9490756.395 16575303.537 16890567.356 10 0 59599 54000.00000 0 9811244.317 18494800.676 14556976.932 10 0 59599 54900.00000 0 10213676.365 20086275.523 11940339.614 10 0 59599 55800.00000 0 10646810.903 21318278.628 9091587.508 10 0 59599 56700.00000 0 11055633.417 22171815.697 6066143.461 10 0 59599 57600.00000 0 11383867.970 22640961.132 2922837.139 10 0 59599 58500.00000 0 11576551.869 22732937.592 -277243.649 10 0 59599 59400.00000 0 11582564.048 22467659.786 -3471943.518 10 0 59599 60300.00000 0 11356999.828 21876763.225 -6599248.344 10 0 59599 61200.00000 0 10863291.438 21002160.195 -9598488.454 10 0 59599 62100.00000 0 10074984.616 19894184.966 -12411512.717 10 0 59599 63000.00000 0 8977096.259 18609407.166 -14983810.885 10 0 59599 63900.00000 0 7566995.930 17208205.769 -17265562.758 10 0 59599 64800.00000 0 5854773.929 15752205.775 -19212594.562 10 0 59599 65700.00000 0 3863080.131 14301684.838 -20787224.914 10 0 59599 66600.00000 0 1626439.756 12913057.947 -21958985.007 10 0 59599 67500.00000 0 -809926.263 11636544.565 -22705200.158 10 0 59599 68400.00000 0 -3391728.339 10514114.738 -23011422.492 10 0 59599 69300.00000 0 -6057616.371 9577798.907 -22871707.105 10 0 59599 70200.00000 0 -8741487.145 8848431.019 -22288726.915 10 0 59599 71100.00000 0 -11374996.911 8334876.541 -21273724.042 10 0 59599 72000.00000 0 -13890176.450 8033777.083 -19846298.413 10 0 59599 72900.00000 0 -16222041.650 7929821.956 -18034037.028 10 0 59599 73800.00000 0 -18311092.509 7996535.269 -15871990.113 10 0 59599 74700.00000 0 -20105597.542 8197545.781 -13402003.200 10 0 59599 75600.00000 0 -21563569.219 8488286.507 -10671916.859 10 0 59599 76500.00000 0 -22654348.289 8818053.017 -7734648.434 10 0 59599 77400.00000 0 -23359730.752 9132333.973 -4647172.701 10 0 59599 78300.00000 0 -23674590.036 9375315.744 -1469420.544 10 0 59599 79200.00000 0 -23606967.879 9492455.049 1736883.335 10 0 59599 80100.00000 0 -23177629.560 9433010.392 4909420.987 10 0 59599 81000.00000 0 -22419101.803 9152424.273 7986496.425 10 0 59599 81900.00000 0 -21374233.476 8614454.138 10908241.294 10 0 59599 82800.00000 0 -20094339.614 7792960.470 13617786.684 10 0 59599 83700.00000 0 -18637006.981 6673274.685 16062377.525 10 0 59599 84600.00000 0 -17063653.825 5253087.265 18194407.098 10 0 59599 85500.00000 0 -15436946.997 3542816.887 19972350.769 10 0 59600 0.00000 0 -13818185.659 1565443.451 21361580.173 10 0 59600 900.00000 0 -12264761.183 -644190.669 22335042.318 10 0 59600 1800.00000 0 -10827802.497 -3040580.406 22873788.377 10 0 59600 2700.00000 0 -9550103.031 -5569213.226 22967344.350 10 0 59600 3600.00000 0 -8464418.402 -8168608.778 22613914.464 10 0 59600 4500.00000 0 -7592205.103 -10772659.321 21820414.275 10 0 59600 5400.00000 0 -6942852.692 -13313173.448 20602332.873 10 0 59600 6300.00000 0 -6513440.838 -15722517.244 18983427.014 10 0 59600 7200.00000 0 -6289030.363 -17936242.749 16995253.388 10 0 59600 8100.00000 0 -6243474.751 -19895594.265 14676548.329 10 0 59600 9000.00000 0 -6340716.581 -21549788.101 12072467.346 10 0 59600 9900.00000 0 -6536512.827 -22857970.852 9233699.674 10 0 59600 10800.00000 0 -6780514.842 -23790774.927 6215475.526 10 0 59600 11700.00000 0 -7018613.893 -24331407.034 3076485.837 10 0 59600 12600.00000 0 -7195452.021 -24476225.019 -122263.805 10 0 59600 13500.00000 0 -7256991.132 -24234780.099 -3318642.249 10 0 59600 14400.00000 0 -7153030.982 -23629324.042 -6450601.275 10 0 59600 15300.00000 0 -6839569.166 -22693803.284 -9457379.584 10 0 59600 16200.00000 0 -6280903.107 -21472383.473 -12280678.783 10 0 59600 17100.00000 0 -5451385.183 -20017567.355 -14865788.678 10 0 59600 18000.00000 0 -4336756.943 -18387985.656 -17162640.376 10 0 59600 18900.00000 0 -2935006.144 -16645953.886 -19126767.496 10 0 59600 19800.00000 0 -1256710.315 -14854897.270 -20720157.776 10 0 59600 20700.00000 0 675147.985 -13076751.035 -21911979.590 10 0 59600 21600.00000 0 2825887.269 -11369443.872 -22679170.431 10 0 59600 22500.00000 0 5150326.179 -9784568.500 -23006876.968 10 0 59600 23400.00000 0 7594426.805 -8365335.346 -22888738.941 10 0 59600 24300.00000 0 10097315.447 -7144893.393 -22327011.906 10 0 59600 25200.00000 0 12593598.507 -6145087.068 -21332526.591 10 0 59600 26100.00000 0 15015878.900 -5375700.099 -19924485.358 10 0 59600 27000.00000 0 17297370.037 -4834217.198 -18130099.111 10 0 59600 27900.00000 0 19374500.100 -4506113.080 -15984070.697 10 0 59600 28800.00000 0 21189399.244 -4365656.592 -13527933.737 10 0 59600 29700.00000 0 22692166.846 -4377196.223 -10809258.463 10 0 59600 30600.00000 0 23842824.502 -4496873.141 -7880738.805 10 0 59600 31500.00000 0 24612873.064 -4674689.808 -4799177.548 10 0 59600 32400.00000 0 24986388.194 -4856846.989 -1624388.519 10 0 59600 33300.00000 0 24960607.906 -4988250.324 1581963.235 10 0 59600 34200.00000 0 24545986.698 -5015080.074 4757560.674 10 0 59600 35100.00000 0 23765713.312 -4887314.579 7840649.812 10 0 59600 36000.00000 0 22654711.742 -4561099.542 10771246.397 10 0 59600 36900.00000 0 21258167.097 -4000861.557 13492309.938 10 0 59600 37800.00000 0 19629638.080 -3181074.872 15950861.426 10 0 59600 38700.00000 0 17828835.438 -2087604.993 18099022.269 10 0 59600 39600.00000 0 15919159.964 -718570.669 19894953.390 10 0 59600 40500.00000 0 13965103.769 915313.843 21303675.750 10 0 59600 41400.00000 0 12029624.198 2790932.255 22297755.926 10 0 59600 42300.00000 0 10171600.925 4873488.751 22857843.155 10 0 59600 43200.00000 0 8443482.910 7117730.398 22973047.383 10 0 59600 44100.00000 0 6889223.780 9469619.256 22641150.972 10 0 59600 45000.00000 0 5542591.826 11868384.809 21868650.077 10 0 59600 45900.00000 0 4425924.810 14248871.428 20670625.051 10 0 59600 46800.00000 0 3549380.833 16544083.012 19070442.576 10 0 59600 47700.00000 0 2910715.542 18687818.573 17099295.519 10 0 59600 48600.00000 0 2495593.600 20617288.728 14795589.746 10 0 59600 49500.00000 0 2278419.712 22275603.774 12204190.052 10 0 59600 50400.00000 0 2223652.618 23614029.395 9375540.324 10 0 59600 51300.00000 0 2287544.974 24593915.860 6364675.504 10 0 59600 52200.00000 0 2420234.097 25188220.407 3230145.044 10 0 59600 53100.00000 0 2568093.903 25382559.628 32869.482 10 0 59600 54000.00000 0 2676247.371 25175748.603 -3165047.096 10 0 59600 54900.00000 0 2691132.364 24579805.190 -6301525.147 10 0 59600 55800.00000 0 2563011.663 23619420.365 -9315714.382 10 0 59600 56700.00000 0 2248320.704 22330917.916 -12149171.575 10 0 59600 57600.00000 0 1711753.637 20760748.017 -14746988.773 10 0 59600 58500.00000 0 927999.669 18963578.520 -17058850.292 10 0 59600 59400.00000 0 -116943.516 17000064.240 -19039998.758 10 0 59600 60300.00000 0 -1424934.632 14934387.458 -20652092.358 10 0 59600 61200.00000 0 -2985367.238 12831672.038 -21863937.700 10 0 59600 62100.00000 0 -4775375.825 10755378.236 -22652085.212 10 0 59600 63000.00000 0 -6760561.741 8764785.697 -23001276.561 10 0 59600 63900.00000 0 -8896209.768 6912668.266 -22904736.232 10 0 59600 64800.00000 0 -11128946.030 5243255.977 -22364302.148 10 0 59600 65700.00000 0 -13398769.817 3790567.738 -21390392.949 10 0 59600 66600.00000 0 -15641376.335 2577182.960 -20001812.317 10 0 59600 67500.00000 0 -17790675.389 1613502.296 -18225393.527 10 0 59600 68400.00000 0 -19781402.590 897527.594 -16095490.169 10 0 59600 69300.00000 0 -21551715.420 415169.796 -13653321.785 10 0 59600 70200.00000 0 -23045666.690 141071.645 -10946185.917 10 0 59600 71100.00000 0 -24215452.512 39910.553 -8026550.629 10 0 59600 72000.00000 0 -25023340.661 68126.909 -4951044.209 10 0 59600 72900.00000 0 -25443198.205 176004.971 -1779360.926 10 0 59600 73800.00000 0 -25461553.598 310018.371 1426896.310 10 0 59600 74700.00000 0 -25078147.734 415340.817 4605413.822 10 0 59600 75600.00000 0 -24305949.840 438415.140 7694382.042 10 0 59600 76500.00000 0 -23170636.580 329471.084 10633703.192 10 0 59600 77400.00000 0 -21709555.500 44884.095 13366167.479 10 0 59600 78300.00000 0 -19970215.778 -450726.107 15838574.112 10 0 59600 79200.00000 0 -18008369.348 -1182747.502 18002774.573 10 0 59600 80100.00000 0 -15885762.874 -2165253.749 19816617.028 10 0 59600 81000.00000 0 -13667654.957 -3400165.625 21244773.010 10 0 59600 81900.00000 0 -11420202.766 -4876932.840 22259429.902 10 0 59600 82800.00000 0 -9207827.834 -6572751.004 22840835.462 10 0 59600 83700.00000 0 -7090671.338 -8453305.861 22977683.796 10 0 59600 84600.00000 0 -5122245.254 -10474014.582 22667335.260 10 0 59600 85500.00000 0 -3347377.420 -12581712.759 21915866.145 99